sat.trackr.live / text

‹ back to catalog

STARLINK-31821

NORAD 59737 · 2024-090H

PAYLOAD ACTIVE UNKNOWN

§ Identity

Operator
Country
US
Launch date
2024-05-13
Launch site
AFETR
Launch vehicle
Mass (kg)
RCS (m²)

Purposes: comms

External: N2YO · Heavens-Above · Gunter

§ Orbital elements

Epoch: 2026-09-21T02:14:37.702752Z

Period
94.27 min
Inclination
43.0013°
Eccentricity
0.0000731
Mean motion
15.27575276 rev/d
Perigee alt
482.6 km
Apogee alt
483.6 km
Semi-major
6,861.2 km
B*
2.5173e-6
RAAN
160.0460°
Arg perigee
275.5919°
Mean anomaly
84.4849°
Rev number
13,332

§ Raw data

STARLINK-318211 59737U 24090H   26264.09349193 -.00000193  00000+0  25173-5 0  99902 59737  43.0013 160.0460 0000731 275.5919  84.4849 15.27575276133326

JSON: /api/v1/satellites/59737 · /tle

For live sub-satellite position, see the globe view (requires WebGL).

§ Visibility from observer

Set your observer location to see the next 7 days of passes ≥ 10°. The values pass through the URL so the page stays shareable.

No JS? Fill the form by hand. The geolocation button needs JavaScript.